IRIDIUM 33 DEB, 35620

Orbit data source: Space-Track

IRIDIUM 33 DEB, 35620 is space debris in LEO originally from a launch on Sun, 14 Sep 1997 UTC launched from the Tyuratam Missile And Space Complex (TTMTR). The debris from Iridium 33, an American commercial communications satellite, has been tracked extensively since its accidental collision with the defunct Russian satellite Cosmos 2251 in 2009. This event, occurring at high speed in low Earth orbit (LEO), generated thousands of pieces of space debris, significantly increasing the risk of further collisions. The Iridium 33 debris cloud has impacted space traffic management and orbital debris mitigation strategies, making it a subject of ongoing study in space situational awareness.

Loading next visibility...
Identifier
35620, 1997-051QS
Orbit
LEO
Country
Flag of USUS
Related business
Manufacturer
Unknown
Mission
Spacecraft
Bus & Motor
Unknown
Mass
Unknown
Launch date (UTC)
1997-09-14 (29 years ago)
Launch vehicle
Unknown
Launch site
Tyuratam Missile And Space Complex (TTMTR)
Object type
Payload
Rocket body
Debris
Shape & HBR
Unknown shape, 0.1 m
Radar Cross Section
Small (<0.1 m²)

Expand to show TLE details & history
Last TLE update: 14 hours ago

TLE from 14 hours ago
0 IRIDIUM 33 DEB
1 35620U 97051QS  26121.08299564  .00006713  00000-0  18440-2 0  9999
2 35620  86.3905 158.5445 0137717 157.8790 202.8433 14.41395468619715
Epoch: 2026-05-01T01:59Z
TLE epoch observation values (Epoch: 2026-05-01T01:59:30.823Z)
Latitude
-0.00006°
Longitude
-90.35428°
Altitude
847.69 km
Speed
7.381 km/s
True Right ascension
10h 34m 10s
True Declination
0° 00' 00"
Sunlit
Object was in full shadow at epoch
Visualization orbit readout
Latitude
Unknown
Longitude
Unknown
Altitude
Unknown
Speed
Unknown
Apparent Right ascension
Unknown
Apparent Declination
Unknown
Sunlit
N/A
Visualization observer readout
Local Sidereal Time
23:55:36
Azimuth
Unknown
Elevation
Unknown
Doppler factor
Unknown
Orbital elements
Apogee altitude
849.023 km
Perigee altitude
652.667 km
Semi-major axis
7,128.982 km
Eccentricity
0.01377
Inclination
86.3905°
RAAN
158.5445°
Arg. of periapsis
157.879°
True anomaly
202.24024°
Mean anomaly
202.8433°
Eccentric anomaly
202.54082°
Mean motion
3.6058 °/min
Orbital period
99.84 mins
BSTAR
0.001844
Loading maneuver chart data...
Computing Atmospheric mass density...
Loading historical data...
Loading historical data...
Loading historical data...
Loading historical data...
Loading historical data...
Loading historical data...
Loading historical data...

Documentation

Showing up to 5 results
|